Starlink 3843

operational
NORAD ID: 52341 Int'l Des: 2022-045 Owner: SPXS Country: US Constellation: starlink
LEOCIRCULAR

About Starlink 3843

Description loading...

Live Position

Loading 3D Globe...

Upcoming Passes

Altitude History

Altitude vs Time

uPlot chart will show altitude changes over time

Two-Line Element Set

1 52341U 22045L 26048.09103097 -.00001144 00000-0 -53788-4 0 9994
2 52341 53.2175 301.5453 0001284 82.7067 277.4071 15.08830325212532
Epoch: Feb 17, 2026 • Age: 22 hours

Current Status

Altitude 543.8 km
Velocity 7.59 km/s
Sub-Earth Point -13.93°S, 15.65°W
Launch Date Apr 29, 2022
Age 3.8 years
Type internet

Technical Details

Classification Payload
Mass 297.00 kg
Dry Mass 275.00 kg
Total Mass 297.00 kg
Length 0.20 m
Diameter 2.80 m
Span 9.00 m
Shape Box + pan
Manufacturer SPXS
Bus Type Starlink
Phase Status In Orbit
Owner/State SPXS/US

Large Constellations

Loading constellations...